Montana Department of Transportation

Main Content

Accidents and Incidents Report

Hourly Weather Roundup

ASUS45 KTFX 300710
RWRMT 
MONTANA REGIONAL WEATHER ROUNDUP
NATIONAL WEATHER SERVICE GREAT FALLS MT
100 AM MDT TUE MAY 30 2017

NOTE: "FAIR" INDICATES FEW OR NO CLOUDS BELOW 12000 FEET WITH NO
SIGNIFICANT WEATHER AND/OR OBSTRUCTIONS TO VISIBILITY.

MTZ001.007-043-300800-
WEST OF THE DIVIDE
  
CITY           SKY/WX    TMP DP  RH WIND       PRES   REMARKS
KALISPELL      CLEAR     55  47  74 NW5       30.04R                  
MISSOULA       PTCLDY    60  41  49 N3        30.06R                  
BUTTE          CLEAR     48  40  73 CALM      30.18S                  
MULLAN PASS    CLEAR     58  35  42 SE8       30.17S                  
ANACONDA         N/A     50  37  62 SW7       30.16S                  
DEER LODGE       N/A     52  39  62 SW3       30.16S                  
EUREKA           N/A     55  45  67 CALM      30.05R                  
HAMILTON         N/A     57  43  58 S5        30.07R                  
PLAINS           N/A     57  49  75 CALM      30.03R                  
RONAN            N/A     59  44  57 CALM      30.09R                  
--------------------------------

MTZ008-052.055-300800-
SOUTHWEST MONTANA
  
CITY           SKY/WX    TMP DP  RH WIND       PRES   REMARKS
BOZEMAN        CLEAR     52  41  66 S9        30.14S                  
DILLON         CLOUDY    58  39  49 SE9       30.15S                  
ENNIS          CLOUDY    52  37  58 CALM      30.21S                  
THREE FORKS      N/A     47  42  82 CALM      30.11S                  
TWIN BRIDGES     N/A     52  36  54 CALM      30.12S                  
--------------------------------

MTZ009-010-012-014-046-048-049-054-300800-
EAST SLOPES AND CENTRAL MONTANA
  
CITY           SKY/WX    TMP DP  RH WIND       PRES   REMARKS
CUT BANK       PTCLDY    57  41  55 E15       30.11S                  
GREAT FALLS    CLOUDY    59  43  55 SE7       30.11S                  
MALMSTROM AFB  CLOUDY    54  45  72 SE10      30.10S                  
HELENA         CLEAR     60  41  49 E6        30.10S                  
CHOTEAU          N/A     52  46  82 W6        30.14S                  
CONRAD           N/A     50  50 100 CALM      30.13R                  
--------------------------------

MTZ011-013-016-021-045-047-050-051-300800-
NORTH CENTRAL MONTANA
  
CITY           SKY/WX    TMP DP  RH WIND       PRES   REMARKS
HAVRE          CLEAR     51  35  54 E10       30.11S                  
LEWISTOWN      CLEAR     44  38  79 E8        30.15F                  
N BAR RANCH      N/A     43  36  75 W6        30.20S                  
CHINOOK          N/A     48  37  66 CALM      30.13R                  
FORT BENTON      N/A     59  37  44 MISG      30.09F                  
--------------------------------

MTZ017.020-022.027-061-062-300800-
NORTHEAST MONTANA
  
CITY           SKY/WX    TMP DP  RH WIND       PRES   REMARKS
GLASGOW        CLEAR     46  26  45 NE12      30.10F                  
JORDAN           N/A     40  28  62 W5        30.12S                  
SIDNEY         CLEAR     44  30  57 NW12      30.08R                  
WOLF POINT     CLEAR     44  30  57 SW5       30.10S                  
MALTA          CLEAR     45  36  70 CALM      30.12R                  
PLENTYWOOD       N/A     46  27  46 N7        30.08S                  
POPLAR           N/A     48  28  46 N6        30.10S                  
SCOBEY           N/A     38  24  57 NW3       30.09S                  
--------------------------------

MTZ028.42-056.058-300800-
SOUTHCENTRAL AND SOUTHEAST MONTANA
  
CITY           SKY/WX    TMP DP  RH WIND       PRES   REMARKS
BAKER          CLEAR     42  30  62 CALM      30.11S                  
BILLINGS       PTCLDY    58  39  49 NE3       30.12F                  
LIVINGSTON     CLEAR     44  39  82 S5        30.16S                  
MILES CITY     CLEAR     47  27  45 NW7       30.10S                  
BIG TIMBER     CLEAR     48  43  81 CALM      30.18S                  
EKALAKA          N/A     44  27  51 SE3       30.09SFORSYTH          N/A     50  30  46 CALM      30.12S                  
LAUREL           N/A     53  40  61 CALM      30.10F                  
ROUNDUP          N/A     52  29  41 N1        30.05S                  
--------------------------------

REGIONAL REPORTS...DAKOTAS
  
CITY           SKY/WX    TMP DP  RH WIND       PRES   REMARKS
WILLISTON      CLEAR     42  30  62 CALM      30.07R                  
MINOT          CLEAR     45  38  76 NW10      30.03R                  
DICKINSON      PTCLDY    38  28  67 W8        30.04S                  
BEACH            N/A     37  34  87 CALM      30.12S                  
CROSBY           N/A     39  30  70 NW8       30.09R                  
TIOGA            N/A     39  34  81 CALM      30.08R                  
WATFORD CITY     N/A     39  32  75 CALM      30.06S                  
BISMARCK       CLEAR     42  36  79 CALM      30.04S                  
GRAND FORKS    CLOUDY    48  44  86 NW12      29.91S                  
FARGO          CLOUDY    49  43  80 N10       29.92S                  
BUFFALO SD       N/A     48  30  49 NW7       30.04S                  
RAPID CITY     CLEAR     41  29  62 W5        30.12S                  
--------------------------------

REGIONAL REPORTS...WYOMING/IDAHO/WASHINGTON
  
CITY           SKY/WX    TMP DP  RH WIND       PRES   REMARKS
GILLETTE       CLEAR     36  33  89 SW3       30.16S                  
SHERIDAN       CLEAR     41  37  86 CALM      30.14F                  
BUFFALO WY     CLEAR     48  32  53 SW5       30.19F                  
CODY           CLEAR     53  37  54 SW6       30.20S                  
YELLOWSTONE LA   N/A     33  30  88 CALM      30.32F                  
IDAHO FALLS    CLEAR     50  45  83 CALM      30.13S                  
SALMON         CLOUDY    57  45  62 CALM      30.07R                  
BOISE          CLEAR     69  43  38 SE8       29.96F                  
SPOKANE        CLEAR     71  45  39 CALM      29.95S                  
--------------------------------

REGIONAL REPORTS...ALBERTA
  
CITY           SKY/WX    TMP DP  RH WIND       PRES   REMARKS
EDMONTON       PTCLDY    52  36  54 SE8       30.10S                  
CALGARY        PTCLDY    59  41  51 SE13      30.10F                  
LETHBRIDGE     CLEAR     52  43  71 SE9       30.10S                  
MEDICINE HAT   CLEAR     52  37  58 E6        30.10S                  
CARDSTON         N/A     52  46  82 SW7         N/A                   
MILK RIVER       N/A     54  37  54 E12         N/A                   
ONEFOUR          N/A     48  34  57 NE12        N/A                   
--------------------------------

REGIONAL REPORTS...SASKATCHEWAN
  
CITY           SKY/WX    TMP DP  RH WIND       PRES   REMARKS
SWIFT CURRENT  CLEAR     46  28  49 E8        30.13S                  
REGINA         CLEAR     46  36  66 N7        30.12R                  
SASKATOON      CLEAR     43  34  70 NE6       30.17R                  
CYPRESS HILLS    N/A     48  27  43 E5          N/A                   
ROCKGLEN         N/A     43  28  56 N5          N/A                   
--------------------------------